STARLINK-30551, 58083

Orbit data source: Space-Track

STARLINK-30551, 58083 is a payload satellite owned by SpaceX/Seattle (US) in LEO that was launched on Wed, 18 Oct 2023 UTC via an FALCON 9 launch vehicle from the Air Force Eastern Test Range (AFETR). Payload-class satellites include a variety of spacecraft equipped with specific instruments for various scientific and technological missions. These include communications satellites like Starlink; space stations such as the ISS; scientific satellites like the Hubble; Earth observation satellites from companies like Planet Labs, Umbra, and HawkEye 360; GPS; miniature CubeSats for education and research; and military/defense satellites.

Loading next visibility...
Identifier
58083, 2023-160J
Orbit
LEO
Country
Flag of USUS
Related business
Manufacturer
SpaceX/Seattle
Mission
Operational Commercial Communications
Bus & Motor
STARLINK V2M, Unknown motor
Mass
730 kg wet, ~700 kg dry
Launch date (UTC)
2023-10-18 (3 years ago)
Launch vehicle
FALCON 9
Launch site
Air Force Eastern Test Range (AFETR)
Object type
Payload
Rocket body
Debris
Shape & HBR
Box + 2 Pan, 17.7 m
Radar Cross Section
33.884 m², Large (>1 m²)

Expand to show TLE details & history
Last TLE update: 2 days ago

TLE from 2 days ago
0 STARLINK-30551
1 58083U 23160J   26171.13298049 -.00000143  00000-0  43306-5 0  9999
2 58083  42.9991 222.7033 0000909 227.5187 132.5588 15.27581184148578
Epoch: 2026-06-20T03:11Z
TLE epoch observation values (Epoch: 2026-06-20T03:11:29.514Z)
Latitude
-0.00001°
Longitude
-93.52166°
Altitude
483.243 km
Speed
7.625 km/s
True Right ascension
14h 50m 48s
True Declination
0° 00' 00"
Sunlit
Object was in full shadow at epoch
Visualization orbit readout
Latitude
Unknown
Longitude
Unknown
Altitude
Unknown
Speed
Unknown
Apparent Right ascension
Unknown
Apparent Declination
Unknown
Sunlit
N/A
Visualization observer readout
Local Sidereal Time
21:29:42
Azimuth
Unknown
Elevation
Unknown
Doppler factor
Unknown
Orbital elements
Apogee altitude
485.615 km
Perigee altitude
484.367 km
Semi-major axis
6,863.128 km
Eccentricity
0.00009
Inclination
42.9991°
RAAN
222.7033°
Arg. of periapsis
227.5187°
True anomaly
132.56647°
Mean anomaly
132.5588°
Eccentric anomaly
132.56264°
Mean motion
3.81733 °/min
Orbital period
94.31 mins
BSTAR
0.0000043306
Loading maneuver chart data...
Computing Atmospheric mass density...
Loading historical data...
Loading historical data...
Loading historical data...
Loading historical data...
Loading historical data...
Loading historical data...
Loading historical data...

Documentation

Showing up to 5 results
|